Climatologie pour Saint-Brevin les Pins
Jour • Résumé pour juillet 1, 2017 Système :  Métrique    Anglais   Mixte
« - 1 jour
+ 1 jour »
Jour Semaine Mois Année Personnalisé
  Maximum : Minimum : Moyenne :
Température sous abri : 21.8 °C 14.3 °C 16.6 °C
Point de rosée : 15.4 °C 12.6 °C 13.3 °C
Humidité : 91 % 62 % 81 %
Vitesse du vent : 24.1 km/h 0.0 km/h 8.2 km/h
Rafale : 32.2 km/h - -
Direction :- - WNW
Pression : 1023.9 hPa 1014.4 hPa -
Précipitations : 0.0 mm    
Historical Graphs
 
 
Tableau de données pour juillet 1, 2017
Heure Tempé Pt rosée Pression Vent Vitesse Rafale Humidité Taux pluie (/hr) Soleil
00:00 14.6 °C 12.6 °C 1014.4 hPa West 3.2 km/h 19.3 km/h 88 % 0.0 mm 0 W/m2
00:10 14.6 °C 12.6 °C 1014.4 hPa WNW 8.0 km/h 19.3 km/h 88 % 0.0 mm 0 W/m2
00:15 14.6 °C 12.6 °C 1014.4 hPa WNW 6.4 km/h 19.3 km/h 88 % 0.0 mm 0 W/m2
00:20 14.6 °C 12.6 °C 1014.8 hPa NNW 3.2 km/h 19.3 km/h 88 % 0.0 mm 0 W/m2
00:25 14.6 °C 12.6 °C 1014.8 hPa WNW 9.7 km/h 22.5 km/h 88 % 0.0 mm 0 W/m2
00:30 14.6 °C 12.6 °C 1014.8 hPa WNW 6.4 km/h 22.5 km/h 88 % 0.0 mm 0 W/m2
00:40 14.6 °C 12.6 °C 1014.8 hPa North 8.0 km/h 16.1 km/h 88 % 0.0 mm 0 W/m2
00:45 14.6 °C 12.6 °C 1014.8 hPa WNW 6.4 km/h 16.1 km/h 88 % 0.0 mm 0 W/m2
00:50 14.7 °C 12.7 °C 1014.8 hPa WNW 8.0 km/h 14.5 km/h 88 % 0.0 mm 0 W/m2
00:55 14.7 °C 12.7 °C 1014.8 hPa WNW 4.8 km/h 17.7 km/h 88 % 0.0 mm 0 W/m2
01:00 14.7 °C 12.7 °C 1015.1 hPa WNW 4.8 km/h 17.7 km/h 88 % 0.0 mm 0 W/m2
01:05 14.7 °C 12.8 °C 1015.1 hPa North 1.6 km/h 14.5 km/h 88 % 0.0 mm 0 W/m2
01:10 14.7 °C 12.8 °C 1014.8 hPa WNW 4.8 km/h 16.1 km/h 88 % 0.0 mm 0 W/m2
01:15 14.7 °C 12.8 °C 1014.8 hPa West 8.0 km/h 19.3 km/h 88 % 0.0 mm 0 W/m2
01:25 14.7 °C 12.8 °C 1015.1 hPa North 8.0 km/h 20.9 km/h 88 % 0.0 mm 0 W/m2
01:30 14.8 °C 12.8 °C 1015.1 hPa WNW 3.2 km/h 14.5 km/h 88 % 0.0 mm 0 W/m2
01:35 14.8 °C 12.8 °C 1015.1 hPa WNW 12.9 km/h 14.5 km/h 88 % 0.0 mm 0 W/m2
01:40 14.7 °C 12.8 °C 1015.1 hPa Calm   17.7 km/h 88 % 0.0 mm 0 W/m2
01:45 14.7 °C 12.8 °C 1015.5 hPa NNW 4.8 km/h 19.3 km/h 88 % 0.0 mm 0 W/m2
01:50 14.7 °C 12.8 °C 1015.5 hPa NW 8.0 km/h 19.3 km/h 88 % 0.0 mm 0 W/m2
01:55 14.7 °C 12.8 °C 1015.5 hPa WNW 6.4 km/h 22.5 km/h 88 % 0.0 mm 0 W/m2
02:00 14.7 °C 12.7 °C 1015.5 hPa NW 8.0 km/h 27.4 km/h 88 % 0.0 mm 0 W/m2
02:10 14.6 °C 12.8 °C 1015.5 hPa North 6.4 km/h 17.7 km/h 89 % 0.0 mm 0 W/m2
02:15 14.6 °C 12.8 °C 1015.5 hPa West 3.2 km/h 16.1 km/h 89 % 0.0 mm 0 W/m2
02:20 14.6 °C 12.8 °C 1015.5 hPa NW 8.0 km/h 16.1 km/h 89 % 0.0 mm 0 W/m2
02:25 14.6 °C 12.8 °C 1015.5 hPa WNW 3.2 km/h 17.7 km/h 89 % 0.0 mm 0 W/m2
02:30 14.6 °C 12.8 °C 1015.5 hPa NNW 6.4 km/h 17.7 km/h 89 % 0.0 mm 0 W/m2
02:35 14.6 °C 12.8 °C 1015.8 hPa NW 9.7 km/h 16.1 km/h 89 % 0.0 mm 0 W/m2
02:40 14.6 °C 12.8 °C 1015.8 hPa NW 8.0 km/h 16.1 km/h 89 % 0.0 mm 0 W/m2
02:45 14.6 °C 12.8 °C 1015.8 hPa NW 9.7 km/h 19.3 km/h 89 % 0.0 mm 0 W/m2
02:55 14.6 °C 12.8 °C 1015.8 hPa NW 1.6 km/h 24.1 km/h 89 % 0.0 mm 0 W/m2
03:00 14.6 °C 12.8 °C 1015.8 hPa NW 8.0 km/h 24.1 km/h 89 % 0.0 mm 0 W/m2
03:05 14.6 °C 12.8 °C 1015.8 hPa West 3.2 km/h 22.5 km/h 89 % 0.0 mm 0 W/m2
03:10 14.6 °C 12.8 °C 1015.8 hPa NW 3.2 km/h 17.7 km/h 89 % 0.0 mm 0 W/m2
03:15 14.6 °C 12.8 °C 1016.1 hPa WSW 4.8 km/h 17.7 km/h 89 % 0.0 mm 0 W/m2
03:20 14.6 °C 12.8 °C 1015.8 hPa North 11.3 km/h 16.1 km/h 89 % 0.0 mm 0 W/m2
03:25 14.5 °C 12.7 °C 1015.8 hPa WNW 4.8 km/h 16.1 km/h 89 % 0.0 mm 0 W/m2
03:30 14.5 °C 12.9 °C 1015.8 hPa WNW 8.0 km/h 20.9 km/h 90 % 0.0 mm 0 W/m2
03:40 14.4 °C 12.8 °C 1016.1 hPa WNW 4.8 km/h 16.1 km/h 90 % 0.0 mm 0 W/m2
03:45 14.4 °C 12.8 °C 1016.1 hPa North 12.9 km/h 17.7 km/h 90 % 0.0 mm 0 W/m2
03:55 14.4 °C 12.8 °C 1016.1 hPa WNW 6.4 km/h 19.3 km/h 90 % 0.0 mm 0 W/m2
04:00 14.4 °C 12.8 °C 1016.1 hPa NW 9.7 km/h 14.5 km/h 90 % 0.0 mm 0 W/m2
04:05 14.3 °C 12.7 °C 1016.1 hPa West 4.8 km/h 16.1 km/h 90 % 0.0 mm 0 W/m2
04:10 14.3 °C 12.7 °C 1016.1 hPa NNW 1.6 km/h 16.1 km/h 90 % 0.0 mm 0 W/m2
04:15 14.3 °C 12.7 °C 1016.1 hPa NNW 3.2 km/h 17.7 km/h 90 % 0.0 mm 0 W/m2
04:25 14.4 °C 12.9 °C 1016.1 hPa WNW 6.4 km/h 14.5 km/h 91 % 0.0 mm 0 W/m2
04:30 14.4 °C 12.8 °C 1016.1 hPa NNW 4.8 km/h 16.1 km/h 90 % 0.0 mm 0 W/m2
04:35 14.3 °C 12.7 °C 1016.5 hPa WNW 4.8 km/h 19.3 km/h 90 % 0.0 mm 0 W/m2
04:40 14.3 °C 12.7 °C 1016.5 hPa NW 8.0 km/h 19.3 km/h 90 % 0.0 mm 0 W/m2
04:45 14.4 °C 12.8 °C 1016.5 hPa NNW 6.4 km/h 19.3 km/h 90 % 0.0 mm 0 W/m2
04:50 14.4 °C 12.8 °C 1016.5 hPa NNW 11.3 km/h 14.5 km/h 90 % 0.0 mm 0 W/m2
04:55 14.4 °C 12.8 °C 1016.5 hPa NNW 9.7 km/h 17.7 km/h 90 % 0.0 mm 0 W/m2
05:00 14.4 °C 12.8 °C 1016.5 hPa NNW 4.8 km/h 17.7 km/h 90 % 0.0 mm 0 W/m2
05:05 14.4 °C 12.8 °C 1016.5 hPa WNW 3.2 km/h 16.1 km/h 90 % 0.0 mm 0 W/m2
05:10 14.4 °C 12.9 °C 1016.5 hPa NW 3.2 km/h 16.1 km/h 91 % 0.0 mm 0 W/m2
05:20 14.4 °C 13.0 °C 1016.5 hPa West 1.6 km/h 11.3 km/h 91 % 0.0 mm 0 W/m2
05:25 14.5 °C 13.0 °C 1016.5 hPa WNW 3.2 km/h 16.1 km/h 91 % 0.0 mm 0 W/m2
05:30 14.5 °C 13.0 °C 1016.8 hPa WNW 4.8 km/h 16.1 km/h 91 % 0.0 mm 0 W/m2
05:35 14.5 °C 13.0 °C 1016.8 hPa NNW 6.4 km/h 14.5 km/h 91 % 0.0 mm 0 W/m2
05:40 14.4 °C 13.0 °C 1016.8 hPa North 11.3 km/h 16.1 km/h 91 % 0.0 mm 0 W/m2
05:45 14.4 °C 13.0 °C 1016.8 hPa NW 6.4 km/h 16.1 km/h 91 % 0.0 mm 0 W/m2
05:55 14.4 °C 13.0 °C 1016.8 hPa NW 3.2 km/h 19.3 km/h 91 % 0.0 mm 0 W/m2
06:00 14.4 °C 12.9 °C 1016.8 hPa NNE 1.6 km/h 19.3 km/h 91 % 0.0 mm 0 W/m2
06:05 14.4 °C 13.0 °C 1016.8 hPa NW 11.3 km/h 16.1 km/h 91 % 0.0 mm 0 W/m2
06:10 14.4 °C 12.9 °C 1016.8 hPa WNW 6.4 km/h 19.3 km/h 91 % 0.0 mm 0 W/m2
06:15 14.4 °C 12.9 °C 1016.8 hPa North 3.2 km/h 19.3 km/h 91 % 0.0 mm 0 W/m2
06:20 14.3 °C 12.9 °C 1016.8 hPa WNW 4.8 km/h 19.3 km/h 91 % 0.0 mm 0 W/m2
06:25 14.3 °C 12.9 °C 1016.8 hPa North 4.8 km/h 12.9 km/h 91 % 0.0 mm 0 W/m2
06:30 14.3 °C 12.9 °C 1016.8 hPa WNW 8.0 km/h 16.1 km/h 91 % 0.0 mm 0 W/m2
06:40 14.3 °C 12.8 °C 1017.2 hPa NW 1.6 km/h 16.1 km/h 91 % 0.0 mm 7 W/m2
06:45 14.3 °C 12.8 °C 1017.2 hPa NW 3.2 km/h 16.1 km/h 91 % 0.0 mm 14 W/m2
06:50 14.3 °C 12.8 °C 1017.2 hPa NW 4.8 km/h 16.1 km/h 91 % 0.0 mm 18 W/m2
06:55 14.3 °C 12.9 °C 1017.2 hPa NW 9.7 km/h 16.1 km/h 91 % 0.0 mm 25 W/m2
07:00 14.4 °C 13.0 °C 1017.2 hPa NW 1.6 km/h 17.7 km/h 91 % 0.0 mm 28 W/m2
07:05 14.5 °C 13.0 °C 1017.5 hPa North 4.8 km/h 17.7 km/h 91 % 0.0 mm 26 W/m2
07:10 14.5 °C 12.9 °C 1017.5 hPa North 6.4 km/h 22.5 km/h 90 % 0.0 mm 26 W/m2
07:15 14.6 °C 12.9 °C 1017.5 hPa NW 6.4 km/h 22.5 km/h 90 % 0.0 mm 26 W/m2
07:25 14.7 °C 13.0 °C 1017.8 hPa NW 6.4 km/h 17.7 km/h 90 % 0.0 mm 33 W/m2
07:30 14.7 °C 12.9 °C 1017.8 hPa WNW 4.8 km/h 19.3 km/h 89 % 0.0 mm 37 W/m2
07:35 14.7 °C 12.9 °C 1017.8 hPa WNW 4.8 km/h 19.3 km/h 89 % 0.0 mm 40 W/m2
07:40 14.8 °C 13.0 °C 1017.8 hPa WNW 4.8 km/h 19.3 km/h 89 % 0.0 mm 39 W/m2
07:45 14.8 °C 13.0 °C 1017.8 hPa WNW 16.1 km/h 19.3 km/h 89 % 0.0 mm 44 W/m2
07:50 14.9 °C 13.1 °C 1017.8 hPa North 8.0 km/h 17.7 km/h 89 % 0.0 mm 53 W/m2
07:55 14.9 °C 13.0 °C 1018.2 hPa NW 4.8 km/h 20.9 km/h 88 % 0.0 mm 46 W/m2
08:00 15.0 °C 13.0 °C 1018.2 hPa WNW 8.0 km/h 24.1 km/h 88 % 0.0 mm 53 W/m2
08:10 15.1 °C 13.1 °C 1018.2 hPa NW 9.7 km/h 17.7 km/h 88 % 0.0 mm 53 W/m2
08:15 15.1 °C 13.1 °C 1018.2 hPa NW 6.4 km/h 22.5 km/h 88 % 0.0 mm 42 W/m2
08:20 15.1 °C 12.9 °C 1018.2 hPa WNW 14.5 km/h 22.5 km/h 87 % 0.0 mm 35 W/m2
08:25 15.0 °C 13.0 °C 1018.2 hPa West 8.0 km/h 17.7 km/h 88 % 0.0 mm 33 W/m2
08:30 15.0 °C 12.9 °C 1018.5 hPa NNW 8.0 km/h 19.3 km/h 87 % 0.0 mm 26 W/m2
08:35 14.9 °C 13.0 °C 1018.5 hPa NW 9.7 km/h 19.3 km/h 88 % 0.0 mm 26 W/m2
08:40 14.9 °C 13.0 °C 1018.5 hPa North 4.8 km/h 16.1 km/h 88 % 0.0 mm 26 W/m2
08:45 14.9 °C 13.0 °C 1018.5 hPa NW 1.6 km/h 12.9 km/h 88 % 0.0 mm 39 W/m2
08:55 15.0 °C 13.0 °C 1018.8 hPa NW 3.2 km/h 16.1 km/h 88 % 0.0 mm 47 W/m2
09:00 15.1 °C 13.3 °C 1018.8 hPa NW 1.6 km/h 16.1 km/h 89 % 0.0 mm 56 W/m2
09:05 15.2 °C 13.2 °C 1018.8 hPa NW 4.8 km/h 12.9 km/h 88 % 0.0 mm 81 W/m2
09:10 15.3 °C 13.1 °C 1018.8 hPa WNW 9.7 km/h 20.9 km/h 87 % 0.0 mm 77 W/m2
09:15 15.3 °C 13.2 °C 1018.8 hPa NW 8.0 km/h 20.9 km/h 87 % 0.0 mm 53 W/m2
09:20 15.3 °C 13.2 °C 1019.2 hPa NW 4.8 km/h 17.7 km/h 87 % 0.0 mm 54 W/m2
09:25 15.4 °C 13.1 °C 1019.2 hPa North 9.7 km/h 17.7 km/h 86 % 0.0 mm 53 W/m2
09:30 15.4 °C 13.1 °C 1019.2 hPa NW 9.7 km/h 19.3 km/h 86 % 0.0 mm 39 W/m2
09:40 15.3 °C 12.9 °C 1019.2 hPa NW 11.3 km/h 20.9 km/h 86 % 0.0 mm 62 W/m2
09:45 15.3 °C 13.0 °C 1019.5 hPa NNW 14.5 km/h 17.7 km/h 86 % 0.0 mm 60 W/m2
09:50 15.4 °C 12.9 °C 1019.5 hPa NW 11.3 km/h 16.1 km/h 85 % 0.0 mm 67 W/m2
09:55 15.5 °C 13.2 °C 1019.5 hPa NW 1.6 km/h 16.1 km/h 86 % 0.0 mm 76 W/m2
10:00 15.5 °C 13.0 °C 1019.5 hPa West 3.2 km/h 14.5 km/h 85 % 0.0 mm 69 W/m2
10:05 15.6 °C 13.0 °C 1019.5 hPa WNW 1.6 km/h 14.5 km/h 85 % 0.0 mm 72 W/m2
10:10 15.6 °C 13.1 °C 1019.5 hPa NW 9.7 km/h 19.3 km/h 85 % 0.0 mm 69 W/m2
10:15 15.6 °C 12.9 °C 1019.9 hPa NNW 4.8 km/h 24.1 km/h 84 % 0.0 mm 60 W/m2
10:25 15.5 °C 12.8 °C 1019.9 hPa WNW 4.8 km/h 17.7 km/h 84 % 0.0 mm 60 W/m2
10:30 15.6 °C 12.9 °C 1019.9 hPa WNW 9.7 km/h 17.7 km/h 84 % 0.0 mm 60 W/m2
10:35 15.6 °C 13.1 °C 1019.9 hPa NW 6.4 km/h 16.1 km/h 85 % 0.0 mm 72 W/m2
10:40 15.6 °C 12.9 °C 1019.9 hPa NW 11.3 km/h 14.5 km/h 84 % 0.0 mm 69 W/m2
10:45 15.6 °C 12.9 °C 1020.2 hPa West 9.7 km/h 17.7 km/h 84 % 0.0 mm 76 W/m2
10:50 15.7 °C 13.0 °C 1020.2 hPa WNW 17.7 km/h 24.1 km/h 84 % 0.0 mm 74 W/m2
10:55 15.7 °C 13.0 °C 1020.2 hPa NW 9.7 km/h 25.7 km/h 84 % 0.0 mm 69 W/m2
11:00 15.7 °C 13.0 °C 1020.2 hPa WNW 8.0 km/h 25.7 km/h 84 % 0.0 mm 53 W/m2
11:10 15.7 °C 13.0 °C 1020.2 hPa NNE 3.2 km/h 16.1 km/h 84 % 0.0 mm 90 W/m2
11:15 15.8 °C 12.9 °C 1020.5 hPa NE 1.6 km/h 14.5 km/h 83 % 0.0 mm 105 W/m2
11:20 15.9 °C 13.0 °C 1020.5 hPa NW 6.4 km/h 17.7 km/h 83 % 0.0 mm 141 W/m2
11:25 16.1 °C 13.0 °C 1020.5 hPa NNW 6.4 km/h 22.5 km/h 82 % 0.0 mm 165 W/m2
11:30 16.4 °C 13.1 °C 1020.5 hPa WNW 8.0 km/h 22.5 km/h 81 % 0.0 mm 188 W/m2
11:35 16.6 °C 13.3 °C 1020.5 hPa North 11.3 km/h 14.5 km/h 81 % 0.0 mm 216 W/m2
11:40 16.7 °C 13.3 °C 1020.5 hPa NNW 4.8 km/h 14.5 km/h 80 % 0.0 mm 160 W/m2
11:45 16.7 °C 13.2 °C 1020.5 hPa WNW 4.8 km/h 14.5 km/h 80 % 0.0 mm 97 W/m2
11:55 16.4 °C 13.4 °C 1020.5 hPa NW 4.8 km/h 20.9 km/h 82 % 0.0 mm 118 W/m2
12:00 16.5 °C 13.0 °C 1020.5 hPa WNW 11.3 km/h 17.7 km/h 80 % 0.0 mm 151 W/m2
12:05 16.7 °C 13.2 °C 1020.5 hPa NW 3.2 km/h 17.7 km/h 80 % 0.0 mm 156 W/m2
12:10 16.7 °C 13.3 °C 1020.9 hPa NW 3.2 km/h 14.5 km/h 80 % 0.0 mm 169 W/m2
12:15 16.8 °C 13.2 °C 1020.9 hPa NW 6.4 km/h 14.5 km/h 79 % 0.0 mm 169 W/m2
12:20 16.9 °C 13.7 °C 1020.9 hPa WNW 6.4 km/h 14.5 km/h 81 % 0.0 mm 151 W/m2
12:25 17.0 °C 13.5 °C 1020.9 hPa WNW 4.8 km/h 12.9 km/h 80 % 0.0 mm 134 W/m2
12:30 16.9 °C 13.5 °C 1020.9 hPa WNW 8.0 km/h 12.9 km/h 80 % 0.0 mm 148 W/m2
12:40 17.3 °C 13.6 °C 1020.9 hPa NNW 4.8 km/h 14.5 km/h 79 % 0.0 mm 192 W/m2
12:45 17.3 °C 13.4 °C 1020.9 hPa Calm   16.1 km/h 78 % 0.0 mm 185 W/m2
12:50 17.4 °C 13.5 °C 1020.9 hPa WNW 6.4 km/h 16.1 km/h 78 % 0.0 mm 123 W/m2
12:55 17.2 °C 13.5 °C 1021.2 hPa NNW 3.2 km/h 12.9 km/h 79 % 0.0 mm 139 W/m2
13:00 17.0 °C 13.3 °C 1021.2 hPa WNW 3.2 km/h 20.9 km/h 79 % 0.0 mm 155 W/m2
13:05 17.1 °C 13.6 °C 1021.2 hPa WNW 9.7 km/h 20.9 km/h 80 % 0.0 mm 130 W/m2
13:10 17.0 °C 13.3 °C 1021.2 hPa WNW 9.7 km/h 14.5 km/h 79 % 0.0 mm 153 W/m2
13:15 17.1 °C 13.4 °C 1021.2 hPa WNW 6.4 km/h 16.1 km/h 79 % 0.0 mm 207 W/m2
13:25 17.7 °C 13.6 °C 1021.2 hPa WNW 8.0 km/h 16.1 km/h 77 % 0.0 mm 260 W/m2
13:30 17.8 °C 13.7 °C 1021.2 hPa North 8.0 km/h 16.1 km/h 77 % 0.0 mm 253 W/m2
13:35 17.9 °C 13.7 °C 1021.2 hPa West 1.6 km/h 14.5 km/h 76 % 0.0 mm 288 W/m2
13:40 18.2 °C 13.9 °C 1021.2 hPa NW 6.4 km/h 14.5 km/h 76 % 0.0 mm 306 W/m2
13:50 18.6 °C 14.3 °C 1021.2 hPa WNW 16.1 km/h 20.9 km/h 76 % 0.0 mm 339 W/m2
13:55 18.4 °C 13.7 °C 1021.6 hPa WNW 8.0 km/h 20.9 km/h 74 % 0.0 mm 362 W/m2
14:00 18.5 °C 13.8 °C 1021.2 hPa West 11.3 km/h 19.3 km/h 74 % 0.0 mm 320 W/m2
14:05 18.4 °C 13.7 °C 1021.2 hPa NW 3.2 km/h 19.3 km/h 74 % 0.0 mm 262 W/m2
14:10 18.6 °C 13.8 °C 1021.6 hPa West 6.4 km/h 16.1 km/h 74 % 0.0 mm 287 W/m2
14:15 18.6 °C 13.9 °C 1021.2 hPa WNW 3.2 km/h 16.1 km/h 74 % 0.0 mm 399 W/m2
14:20 19.0 °C 13.8 °C 1021.2 hPa West 3.2 km/h 20.9 km/h 72 % 0.0 mm 543 W/m2
14:25 19.8 °C 14.6 °C 1021.2 hPa NW 9.7 km/h 20.9 km/h 72 % 0.0 mm 536 W/m2
14:30 20.2 °C 14.8 °C 1021.6 hPa WNW 6.4 km/h 14.5 km/h 71 % 0.0 mm 283 W/m2
14:35 19.6 °C 14.2 °C 1021.6 hPa NW 8.0 km/h 20.9 km/h 71 % 0.0 mm 339 W/m2
14:40 19.3 °C 13.9 °C 1021.6 hPa WNW 8.0 km/h 20.9 km/h 71 % 0.0 mm 269 W/m2
14:45 19.1 °C 13.5 °C 1021.6 hPa NW 8.0 km/h 19.3 km/h 70 % 0.0 mm 301 W/m2
14:55 19.2 °C 13.6 °C 1021.6 hPa NW 4.8 km/h 14.5 km/h 70 % 0.0 mm 244 W/m2
15:00 19.2 °C 14.0 °C 1021.6 hPa NW 8.0 km/h 14.5 km/h 72 % 0.0 mm 315 W/m2
15:10 19.6 °C 13.8 °C 1021.6 hPa NW 8.0 km/h 14.5 km/h 69 % 0.0 mm 315 W/m2
15:15 19.3 °C 13.7 °C 1021.6 hPa NNW 9.7 km/h 19.3 km/h 70 % 0.0 mm 214 W/m2
15:20 18.9 °C 13.6 °C 1021.6 hPa WNW 12.9 km/h 19.3 km/h 71 % 0.0 mm 283 W/m2
15:25 19.2 °C 13.8 °C 1021.6 hPa NW 9.7 km/h 19.3 km/h 71 % 0.0 mm 329 W/m2
15:30 19.6 °C 14.0 °C 1021.6 hPa WNW 14.5 km/h 17.7 km/h 70 % 0.0 mm 466 W/m2
15:40 20.9 °C 14.3 °C 1021.6 hPa WNW 8.0 km/h 25.7 km/h 66 % 0.0 mm 663 W/m2
15:45 21.1 °C 14.5 °C 1021.6 hPa WNW 6.4 km/h 25.7 km/h 66 % 0.0 mm 540 W/m2
15:50 21.1 °C 14.5 °C 1021.6 hPa NW 9.7 km/h 16.1 km/h 66 % 0.0 mm 494 W/m2
15:55 20.7 °C 14.1 °C 1021.6 hPa WNW 9.7 km/h 20.9 km/h 66 % 0.0 mm 563 W/m2
16:00 20.8 °C 14.5 °C 1021.6 hPa NW 14.5 km/h 20.9 km/h 67 % 0.0 mm 490 W/m2
16:05 20.8 °C 14.9 °C 1021.6 hPa NW 6.4 km/h 19.3 km/h 69 % 0.0 mm 406 W/m2
16:10 21.8 °C 15.4 °C 1021.6 hPa WNW 20.9 km/h 24.1 km/h 67 % 0.0 mm 747 W/m2
16:15 20.9 °C 15.0 °C 1021.6 hPa NW 4.8 km/h 24.1 km/h 69 % 0.0 mm 392 W/m2
16:25 20.1 °C 14.9 °C 1021.6 hPa NNW 9.7 km/h 16.1 km/h 72 % 0.0 mm 281 W/m2
16:30 20.0 °C 14.8 °C 1021.6 hPa WNW 4.8 km/h 20.9 km/h 72 % 0.0 mm 320 W/m2
16:35 19.6 °C 14.6 °C 1021.6 hPa NW 11.3 km/h 24.1 km/h 73 % 0.0 mm 267 W/m2
16:40 19.1 °C 14.6 °C 1021.6 hPa West 11.3 km/h 24.1 km/h 75 % 0.0 mm 461 W/m2
16:45 19.4 °C 14.7 °C 1021.9 hPa WNW 6.4 km/h 25.7 km/h 74 % 0.0 mm 302 W/m2
16:50 19.8 °C 14.4 °C 1021.9 hPa NW 14.5 km/h 25.7 km/h 71 % 0.0 mm 294 W/m2
16:55 19.6 °C 14.4 °C 1021.6 hPa West 6.4 km/h 29.0 km/h 72 % 0.0 mm 461 W/m2
17:00 19.7 °C 14.5 °C 1021.9 hPa West 14.5 km/h 29.0 km/h 72 % 0.0 mm 387 W/m2
17:10 20.8 °C 15.1 °C 1021.9 hPa WSW 8.0 km/h 24.1 km/h 70 % 0.0 mm 854 W/m2
17:15 20.9 °C 15.0 °C 1021.6 hPa West 24.1 km/h 27.4 km/h 69 % 0.0 mm 424 W/m2
17:20 20.2 °C 14.6 °C 1021.9 hPa NW 24.1 km/h 27.4 km/h 70 % 0.0 mm 276 W/m2
17:25 19.7 °C 14.5 °C 1021.9 hPa SW 3.2 km/h 32.2 km/h 72 % 0.0 mm 346 W/m2
17:30 19.7 °C 14.5 °C 1021.9 hPa NW 12.9 km/h 32.2 km/h 72 % 0.0 mm 274 W/m2
17:35 19.4 °C 14.7 °C 1021.9 hPa West 20.9 km/h 27.4 km/h 74 % 0.0 mm 870 W/m2
17:40 20.3 °C 14.6 °C 1021.9 hPa NW 8.0 km/h 24.1 km/h 70 % 0.0 mm 304 W/m2
17:50 21.2 °C 15.1 °C 1021.9 hPa West 11.3 km/h 25.7 km/h 68 % 0.0 mm 431 W/m2
17:55 21.2 °C 15.0 °C 1021.9 hPa WSW 11.3 km/h 24.1 km/h 68 % 0.0 mm 406 W/m2
18:00 21.3 °C 15.4 °C 1021.9 hPa WSW 11.3 km/h 24.1 km/h 69 % 0.0 mm 722 W/m2
18:05 21.1 °C 14.0 °C 1021.9 hPa NW 22.5 km/h 25.7 km/h 64 % 0.0 mm 506 W/m2
18:10 20.6 °C 13.1 °C 1021.9 hPa WSW 8.0 km/h 30.6 km/h 62 % 0.0 mm 571 W/m2
18:15 20.4 °C 13.6 °C 1021.9 hPa WNW 19.3 km/h 30.6 km/h 65 % 0.0 mm 385 W/m2
18:20 20.6 °C 14.2 °C 1021.9 hPa SW 8.0 km/h 24.1 km/h 67 % 0.0 mm 570 W/m2
18:25 20.4 °C 13.6 °C 1022.2 hPa West 17.7 km/h 27.4 km/h 65 % 0.0 mm 190 W/m2
18:30 19.7 °C 13.4 °C 1022.2 hPa WSW 8.0 km/h 27.4 km/h 67 % 0.0 mm 195 W/m2
18:40 19.3 °C 13.5 °C 1022.2 hPa WNW 11.3 km/h 27.4 km/h 69 % 0.0 mm 438 W/m2
18:45 19.6 °C 13.5 °C 1022.2 hPa West 12.9 km/h 29.0 km/h 68 % 0.0 mm 448 W/m2
18:50 19.8 °C 13.8 °C 1022.2 hPa WNW 6.4 km/h 29.0 km/h 68 % 0.0 mm 459 W/m2
18:55 19.9 °C 13.6 °C 1022.2 hPa WSW 20.9 km/h 22.5 km/h 67 % 0.0 mm 436 W/m2
19:00 19.8 °C 13.5 °C 1022.2 hPa SW 17.7 km/h 24.1 km/h 67 % 0.0 mm 422 W/m2
19:05 19.4 °C 13.4 °C 1022.2 hPa West 12.9 km/h 27.4 km/h 68 % 0.0 mm 483 W/m2
19:10 19.2 °C 13.2 °C 1022.2 hPa West 16.1 km/h 30.6 km/h 68 % 0.0 mm 155 W/m2
19:15 18.6 °C 13.0 °C 1022.6 hPa West 8.0 km/h 30.6 km/h 70 % 0.0 mm 151 W/m2
19:25 18.4 °C 13.1 °C 1022.6 hPa WNW 14.5 km/h 25.7 km/h 71 % 0.0 mm 149 W/m2
19:30 18.4 °C 13.3 °C 1022.6 hPa WNW 19.3 km/h 24.1 km/h 72 % 0.0 mm 153 W/m2
19:35 18.4 °C 13.5 °C 1022.6 hPa WNW 12.9 km/h 24.1 km/h 73 % 0.0 mm 132 W/m2
19:40 18.3 °C 13.1 °C 1022.6 hPa West 12.9 km/h 25.7 km/h 72 % 0.0 mm 123 W/m2
19:45 18.3 °C 13.1 °C 1022.6 hPa West 8.0 km/h 25.7 km/h 72 % 0.0 mm 134 W/m2
19:50 18.2 °C 13.0 °C 1022.6 hPa WNW 12.9 km/h 27.4 km/h 72 % 0.0 mm 135 W/m2
19:55 18.2 °C 13.1 °C 1022.6 hPa NW 14.5 km/h 27.4 km/h 72 % 0.0 mm 135 W/m2
20:00 18.2 °C 13.1 °C 1022.6 hPa West 11.3 km/h 22.5 km/h 72 % 0.0 mm 125 W/m2
20:10 18.0 °C 13.1 °C 1022.6 hPa WNW 12.9 km/h 22.5 km/h 73 % 0.0 mm 93 W/m2
20:15 17.9 °C 13.0 °C 1022.6 hPa WNW 14.5 km/h 27.4 km/h 73 % 0.0 mm 104 W/m2
20:20 17.9 °C 13.0 °C 1022.6 hPa WNW 11.3 km/h 27.4 km/h 73 % 0.0 mm 107 W/m2
20:25 17.9 °C 13.0 °C 1022.6 hPa West 12.9 km/h 25.7 km/h 73 % 0.0 mm 93 W/m2
20:30 17.8 °C 12.9 °C 1022.6 hPa West 14.5 km/h 20.9 km/h 73 % 0.0 mm 83 W/m2
20:35 17.8 °C 12.9 °C 1022.6 hPa NW 9.7 km/h 24.1 km/h 73 % 0.0 mm 83 W/m2
20:40 17.8 °C 12.9 °C 1022.6 hPa WNW 8.0 km/h 24.1 km/h 73 % 0.0 mm 116 W/m2
20:45 18.1 °C 13.1 °C 1022.6 hPa West 9.7 km/h 20.9 km/h 73 % 0.0 mm 95 W/m2
20:55 18.2 °C 13.2 °C 1022.9 hPa WNW 9.7 km/h 25.7 km/h 73 % 0.0 mm 91 W/m2
21:00 18.0 °C 13.1 °C 1022.6 hPa NW 11.3 km/h 22.5 km/h 73 % 0.0 mm 54 W/m2
21:05 17.7 °C 13.0 °C 1022.9 hPa NW 22.5 km/h 24.1 km/h 74 % 0.0 mm 47 W/m2
21:10 17.4 °C 13.0 °C 1022.6 hPa NW 8.0 km/h 24.1 km/h 75 % 0.0 mm 37 W/m2
21:15 17.2 °C 13.0 °C 1022.6 hPa West 8.0 km/h 22.5 km/h 76 % 0.0 mm 26 W/m2
21:20 17.0 °C 12.7 °C 1022.9 hPa NW 11.3 km/h 20.9 km/h 76 % 0.0 mm 26 W/m2
21:25 16.9 °C 12.8 °C 1022.9 hPa WNW 11.3 km/h 27.4 km/h 77 % 0.0 mm 19 W/m2
21:30 16.8 °C 12.9 °C 1022.9 hPa WNW 12.9 km/h 27.4 km/h 78 % 0.0 mm 18 W/m2
21:40 16.5 °C 13.0 °C 1022.9 hPa WNW 12.9 km/h 20.9 km/h 80 % 0.0 mm 14 W/m2
21:45 16.4 °C 13.1 °C 1022.9 hPa NW 12.9 km/h 25.7 km/h 81 % 0.0 mm 12 W/m2
21:50 16.2 °C 13.1 °C 1022.9 hPa West 11.3 km/h 25.7 km/h 82 % 0.0 mm 11 W/m2
21:55 16.1 °C 13.2 °C 1022.9 hPa NW 6.4 km/h 17.7 km/h 83 % 0.0 mm 9 W/m2
22:00 16.0 °C 13.1 °C 1022.9 hPa SW 4.8 km/h 17.7 km/h 83 % 0.0 mm 7 W/m2
22:05 15.9 °C 13.2 °C 1023.2 hPa WNW 6.4 km/h 17.7 km/h 84 % 0.0 mm 5 W/m2
22:10 15.9 °C 13.2 °C 1023.2 hPa West 6.4 km/h 17.7 km/h 84 % 0.0 mm 0 W/m2
22:15 15.8 °C 13.1 °C 1023.2 hPa West 8.0 km/h 17.7 km/h 84 % 0.0 mm 0 W/m2
22:25 15.7 °C 13.2 °C 1023.2 hPa West 1.6 km/h 17.7 km/h 85 % 0.0 mm 0 W/m2
22:30 15.7 °C 13.2 °C 1023.2 hPa WNW 11.3 km/h 22.5 km/h 85 % 0.0 mm 0 W/m2
22:35 15.7 °C 13.2 °C 1023.2 hPa NNW 8.0 km/h 22.5 km/h 85 % 0.0 mm 0 W/m2
22:40 15.6 °C 13.1 °C 1023.6 hPa NW 8.0 km/h 20.9 km/h 85 % 0.0 mm 0 W/m2
22:45 15.6 °C 13.1 °C 1023.6 hPa West 12.9 km/h 19.3 km/h 85 % 0.0 mm 0 W/m2
22:50 15.6 °C 13.0 °C 1023.6 hPa WNW 14.5 km/h 22.5 km/h 85 % 0.0 mm 0 W/m2
22:55 15.6 °C 13.1 °C 1023.6 hPa WNW 12.9 km/h 25.7 km/h 85 % 0.0 mm 0 W/m2
23:00 15.6 °C 13.0 °C 1023.6 hPa West 11.3 km/h 25.7 km/h 85 % 0.0 mm 0 W/m2
23:05 15.6 °C 13.2 °C 1023.6 hPa West 3.2 km/h 24.1 km/h 86 % 0.0 mm 0 W/m2
23:10 15.5 °C 13.2 °C 1023.6 hPa WNW 11.3 km/h 24.1 km/h 86 % 0.0 mm 0 W/m2
23:15 15.6 °C 13.2 °C 1023.6 hPa WSW 4.8 km/h 27.4 km/h 86 % 0.0 mm 0 W/m2
23:25 15.4 °C 13.3 °C 1023.6 hPa NW 1.6 km/h 25.7 km/h 87 % 0.0 mm 0 W/m2
23:30 15.3 °C 13.2 °C 1023.6 hPa NW 12.9 km/h 19.3 km/h 87 % 0.0 mm 0 W/m2
23:35 15.3 °C 13.2 °C 1023.6 hPa WSW 6.4 km/h 17.7 km/h 87 % 0.0 mm 0 W/m2
23:40 15.3 °C 13.1 °C 1023.6 hPa NW 9.7 km/h 17.7 km/h 87 % 0.0 mm 0 W/m2
23:45 15.3 °C 13.1 °C 1023.6 hPa WNW 1.6 km/h 17.7 km/h 87 % 0.0 mm 0 W/m2
23:55 15.3 °C 13.1 °C 1023.9 hPa WNW 14.5 km/h 24.1 km/h 87 % 0.0 mm 0 W/m2
Avec l'autorisation de Weather Underground - 1.5 mb